Location: Hermaringen
(48.5952°N, 10.2585°E)
Time: 05:54:52
(UTC+00:00)

Altair - Pass Details

Date: 25 February 2026
Orbit: 1502 x 1682 km, 47.2° (Epoch: 5 March)

Event Time Altitude Azimuth Distance (km) Brightness Sun altitude
Rises 06:13:42 0° 280° (W) 4,652 - 0.0°
Exits shadow 06:13:44 - 280° (W) 4,644 9.3 0.0°
Reaches altitude 10° 06:16:42 10° 279° (W) 3,682 8.9 0.5°
Maximum altitude 06:25:56 73° 197° (SSW) 1,611 7.8 1.9°
Drops below altitude 10° 06:35:30 10° 116° (ESE) 3,802 12.0 3.5°
Sets 06:38:39 0° 114° (ESE) 4,811 12.9 4.0°
